Location: Rodson Ranch
(38.7188°N, 119.3202°W)
Time: 13:35:35
(UTC+00:00)

Lacrosse 5 rocket - Pass Details

Date: 29 October 2020
Orbit: 458 x 638 km, 57.0° (Epoch: 01 December)

Event Time Altitude Azimuth Distance (km) Brightness Sun altitude
Exits shadow 12:18:14 13° 11° (N) 1,478 3.6 -24.6°
Drops below altitude 10° 12:18:53 10° 18° (NNE) 1,673 4.0 -24.5°
Sets 12:21:25 0° 33° (NNE) 2,577 5.2 -24.0°
